カタログに戻る

STARLINK-36324

運用中通信VLEO
NORAD 68091·PAYLOAD·🇺🇸 United States

打ち上げ Mar 4, 2026 から Vandenberg Space Force Base

Loading…

次のパス (今後24時間)

TLE

最新Source: CelesTrak SupGP

元期: Sep 14, 2026, 22:42 UTC

1 68091C 26042Y   26257.94631944 -.00010372  00000+0 -30659-3 0  2577
2 68091  53.1589  15.3252 0001317  89.8147 211.9954 15.34379905    12

AllMySatでSTARLINK-36324をリアルタイム追跡

Download on the App Store